"Pseudo-MPEC" for JBTx1Lt

Created 2023 Apr 5 18:22:06 UT using Find_Orb

Click here for an explanation of pseudo-MPECs

 
 Astrometry: 
     JBTx1Lt*!C2023 03 30d!;lh_G$*!;UPjf.6lB(EQX%6@N%;=7ZrS;lN?wO5,%%sgoecwdnW84
     JBTx1Lt !C2023 03 30/D*)r0yiG3T9W!gPxpAstrometrye*uDW9CYkaMT+X8WB7Gi$cx=W84
     JBTx1Lt !C2023 03 30ty+JQ!j5Q4mG(j'redacted;MQT[]fs:.d;RhX*,R)k#4FmIw[pEW84
     JBTx1Lt !C2023 03 30=`DlZO!yC/_;`=Elp(7M^@f5U\4sw:=iOCrPwo9oT/ULTv79ISQCW84
     JBTx1Lt !C2023 03 30sAx0UqaJi*yf)=qv2+B,:D(Q7+^C(2dv?R]CugBai%%:kt-3!1b,W84
     JBTx1Lt !C2023 03 30#mkFOW0VS)b6M]#IxFOW:+I5l6;nXT%%EKUVclick5e/rMyydVIbW84
     JBTx1Lt !C2023 03 30VR@q7C`)YUQ[3here,:9+enbTYK'`KJ')f^5,ULO;VcJax^m9wSXW84
     JBTx1Lt !C2023 03 30E;3Xf:ktBs$bW9offx[va+]:i+S@^1?SDws8oe3k^kTo^#5J!p=UW84
     JBTx1Lt !C2023 03 308Wyw0s[u9ht6a2`LyQdD+3).H-dr.'(8'w2wmq*a^jh]u,\'teiBW84
     JBTx1Lt !C2023 03 30rSoZ4wZLXWN2CLCwd_[.'s)3Ud-@T*8aSsv*-Hb?QNbW.,TLEjZLW84
     JBTx1Lt !C2023 03 30c9\!8j_*R8#NBeP^*'2l8ARmmforQ](Wq\LV'1:YIrak]7Ogs;3eW84
     JBTx1Lt !C2023 03 30\@X*Kof)ofgLw)]8b`0#QGoZhhuUS2uf!5(*_H^JdXT!ppaZtl'iW84
     JBTx1Lt !C2023 03 30Lo1!$3^)Ut1_33C9^-K8.A.oU\;6Kg_6hdUVm_sgKXT^UHBs4JowW84
     JBTx1Lt !C2023 03 30s$Y4;_UTuw*-6xmc?utVPvylIgpdCwD18]fFX?=KU;r?4j:bGE^FW84
     JBTx1Lt !C2023 03 307.3bR+#P=o3]E![b'jWyclj$Tk#97n!$V'Vb_`YTsp?r+[Sv9R_+W84
     JBTx1Lt !C2023 03 30v=9g@,X5-7EiG-(.@\[]-Ul6.BO:\4ky'2t4Ecu6.7pFE6)'Mj[(W84
     JBTx1Lt |C2023 03 31\qj%_;h*:pph*oQ%+:DCdjBM#Nq_0.0Ugen(SRBIHeSp3#0Wt!CO807
     JBTx1Lt |C2023 03 31)F#_g.JBu5j#hB8keEc[X@FiAtEdINd($nk(6@='D_#xwn=w1RUR807
     JBTx1Lt |C2023 03 31xyMMDkvrU#T3qE;af2BdrFbInYFZ1V2dU_7y*3K9j%M;KB#7UyU'807
     JBTx1Lt |C2023 04 01y=PnvwNaS:KbSa]*2vt7#6Fm-Ulb\F%f:U=BqJ6B2C9sC_Vqw4-m807
     JBTx1Lt |C2023 04 01ZT!i!c%GCk;R/7IYMFlp_?P\%,SV@;ITo$wphqen2=WIg6Pg\FLv807
     JBTx1Lt |C2023 04 01.[];7WV:2Lexplanation?/vafnL4Zik^0[4w5#t1eUH'l]`lc%U807

Station data:
(807) Cerro Tololo Observatory, La Serena  (S30.169133 W70.805900)  Chile.
   Observer R. Holmes. 0.61-m f/6.5 astrograph + CCD.
(W84) Cerro Tololo-DECam  (S30.169594 W70.806420)  Chile.  Observer F. Valdes.
    Measurer S. Deen. 4.0-m reflector + CCD.

Orbital elements:  JBTx1Lt
   Perihelion 2023 Apr 15.03873 +/- 1.23 TT =  0:55:46 (JD 2460049.53873)
Epoch 2023 Apr  1.0 TT = JDT 2460035.5   Earth MOID: 0.2348   Ma: 0.0024
M 354.57297249 +/- 0.38             (J2000 ecliptic)             AutoNEOCP
n   0.38657532 +/- 0.00822          Peri.  209.14792 +/- 1.1
a   1.86629359 +/- 0.0265           Node   348.83487 +/- 0.12
e   0.3379794 +/- 0.00859           Incl.    2.04370 +/- 0.022
P   2.55/931.24d           H 23.95  G  0.15   U  9.5
q 1.23552468 +/- 0.0027    Q 2.49706250 +/- 0.0513
From 22 observations 2023 Mar. 30-Apr. 1; mean residual 0".14
Residuals in arcseconds: 
230330 W84  .01-  .04+    230330 W84  .02-  .02-    230331 807  .21-  .26+    
230330 W84  .08+  .19-    230330 W84  .06-  .05-    230331 807  .18+  .41-    
230330 W84  .02+  .01-    230330 W84  .05+  .08-    230331 807  .02-  .13+    
230330 W84  .12+  .16+    230330 W84  .02+  .09+    230401 807  .22-  .36-    
230330 W84  .09-  .03+    230330 W84  .05-  .12+    230401 807  .01-  .31+    
230330 W84  .01+  .02-    230330 W84  .08-  .07+    230401 807  .26+  .06+    
230330 W84  .03-  .05-    230330 W84  .04+  .06-    
230330 W84  .07+  .01+    230330 W84  .02-  .02-    

Ephemerides (geocentric):
Date (UTC) HH   RA             Dec           delta  r     elong  mag " sig PA
---- --------  ------------   ------------  ------ ------ -----  --- --------
2023 04 05 18  11 17 53.843   +00 37 40.15  .25822 1.2383 154.5 22.5 2.91  23
2023 04 05 19  11 17 55.153   +00 37 11.40  .25823 1.2383 154.4 22.5 2.95  23
2023 04 05 20  11 17 56.467   +00 36 42.64  .25825 1.2383 154.4 22.5 3.00  22
2023 04 05 21  11 17 57.787   +00 36 13.85  .25827 1.2383 154.4 22.5 3.05  22
2023 04 05 22  11 17 59.113   +00 35 45.05  .25828 1.2382 154.3 22.5 3.10  22
2023 04 05 23  11 18 00.443   +00 35 16.23  .25830 1.2382 154.3 22.5 3.14  22
2023 04 06 00  11 18 01.778   +00 34 47.39  .25831 1.2382 154.3 22.5 3.19  22
2023 04 06 01  11 18 03.119   +00 34 18.53  .25833 1.2382 154.2 22.5 3.24  22
2023 04 06 02  11 18 04.465   +00 33 49.66  .25835 1.2381 154.2 22.5 3.29  22
2023 04 06 03  11 18 05.816   +00 33 20.76  .25837 1.2381 154.2 22.5 3.34  22
2023 04 06 04  11 18 07.172   +00 32 51.85  .25838 1.2381 154.1 22.5 3.39  22
2023 04 06 05  11 18 08.533   +00 32 22.92  .25840 1.2381 154.1 22.5 3.44  22
2023 04 06 06  11 18 09.900   +00 31 53.97  .25842 1.2381 154.1 22.5 3.49  22
2023 04 06 07  11 18 11.271   +00 31 25.00  .25844 1.2380 154.0 22.5 3.54  22
2023 04 06 08  11 18 12.648   +00 30 56.01  .25845 1.2380 154.0 22.5 3.59  22
2023 04 06 09  11 18 14.030   +00 30 27.01  .25847 1.2380 154.0 22.5 3.64  22
2023 04 06 10  11 18 15.418   +00 29 57.98  .25849 1.2380 153.9 22.5 3.69  22
2023 04 06 11  11 18 16.810   +00 29 28.94  .25851 1.2379 153.9 22.6 3.74  21
2023 04 06 12  11 18 18.207   +00 28 59.88  .25853 1.2379 153.9 22.6 3.79  21
2023 04 06 13  11 18 19.610   +00 28 30.80  .25855 1.2379 153.8 22.6 3.85  21
2023 04 06 14  11 18 21.018   +00 28 01.70  .25857 1.2379 153.8 22.6 3.90  21
2023 04 06 15  11 18 22.431   +00 27 32.59  .25859 1.2378 153.8 22.6 3.95  21
2023 04 06 16  11 18 23.850   +00 27 03.45  .25860 1.2378 153.7 22.6 4.01  21
2023 04 06 17  11 18 25.273   +00 26 34.30  .25862 1.2378 153.7 22.6 4.06  21
2023 04 06 18  11 18 26.702   +00 26 05.13  .25864 1.2378 153.7 22.6 4.11  21
2023 04 06 19  11 18 28.136   +00 25 35.94  .25866 1.2377 153.6 22.6 4.17  21
2023 04 06 20  11 18 29.575   +00 25 06.74  .25868 1.2377 153.6 22.6 4.22  21
2023 04 06 21  11 18 31.019   +00 24 37.51  .25870 1.2377 153.6 22.6 4.28  21
2023 04 06 22  11 18 32.469   +00 24 08.27  .25872 1.2377 153.5 22.6 4.33  21
2023 04 06 23  11 18 33.924   +00 23 39.01  .25874 1.2377 153.5 22.6 4.39  21
2023 04 07 00  11 18 35.383   +00 23 09.73  .25876 1.2376 153.5 22.6 4.44  21
2023 04 07 01  11 18 36.849   +00 22 40.43  .25878 1.2376 153.5 22.6 4.50  20
2023 04 07 02  11 18 38.319   +00 22 11.12  .25881 1.2376 153.4 22.6 4.56  20
2023 04 07 03  11 18 39.795   +00 21 41.78  .25883 1.2376 153.4 22.6 4.61  20
2023 04 07 04  11 18 41.275   +00 21 12.43  .25885 1.2376 153.4 22.6 4.67  20
2023 04 07 05  11 18 42.761   +00 20 43.06  .25887 1.2375 153.3 22.6 4.73  20
2023 04 07 06  11 18 44.252   +00 20 13.68  .25889 1.2375 153.3 22.6 4.79  20
2023 04 07 07  11 18 45.749   +00 19 44.27  .25891 1.2375 153.3 22.6 4.85  20
2023 04 07 08  11 18 47.251   +00 19 14.85  .25893 1.2375 153.2 22.6 4.90  20
2023 04 07 09  11 18 48.757   +00 18 45.41  .25896 1.2374 153.2 22.6 4.96  20
2023 04 07 10  11 18 50.269   +00 18 15.95  .25898 1.2374 153.2 22.6 5.02  20
2023 04 07 11  11 18 51.787   +00 17 46.47  .25900 1.2374 153.1 22.6 5.08  20
2023 04 07 12  11 18 53.309   +00 17 16.98  .25902 1.2374 153.1 22.6 5.14  20
2023 04 07 13  11 18 54.837   +00 16 47.47  .25904 1.2374 153.1 22.6 5.20  20
2023 04 07 14  11 18 56.370   +00 16 17.94  .25907 1.2373 153.0 22.6 5.26  20
2023 04 07 15  11 18 57.908   +00 15 48.39  .25909 1.2373 153.0 22.6 5.32  19
2023 04 07 16  11 18 59.452   +00 15 18.83  .25911 1.2373 153.0 22.6 5.38  19
2023 04 07 17  11 19 01.000   +00 14 49.24  .25914 1.2373 152.9 22.6 5.45  19